LiveATC.Net - Listen to live air traffic control over the Internet! Contact for advertising information

ICAO: ESSA  IATA: ARN   Airport: Arlanda Airport
City: Stockholm
Country: Sweden   Continent: Europe
ESSA METAR Weather: ESSA 292220Z 16008KT CAVOK 03/01 Q0981 R88/29//95 NOSIG
ESSA Flight Activity (FlightAware)
ESSA Sweden Control
Feed Status: DOWN
Last heard on: 2015-11-22 23:54:03 (6 days 23 hours 5 minutes ago)
ESSA Sweden Control Audio Archives
Sweden Control118.200
Sweden Control118.275
Sweden Control118.400
Sweden Control120.150
Sweden Control124.405
Sweden Control124.425
Sweden Control127.755
Sweden Control128.625
Sweden Control129.175
Sweden Control131.125
Sweden Control North (when remoted)131.050


Unauthorized use prohibited. See Terms of Service

Find LiveATC Audio Streams

Airport/ARTCC Code

(e.g., 124.400, 128.75)
Site-wide search

Browse LiveATC Feeds
LiveATC Coverage Map
Top 50 LiveATC Feeds
Bad Weather Areas

Offer a LiveATC Feed
Press Inquiries

LiveATC on iPhone
LiveATC on Android

Windows Phone
Windows 8/10

LiveATC Mobile
(Mobile browser)

ATC Audio Archives
Interesting Recordings

LiveATC Forums

Home Page
Make a Donation
LiveATC Bookstore

Terms of Use
Privacy Policy

ATC/Radar Sites
U.S. ARTCC Freqs
Canadian Air Freqs


FAA Airport Status
Nat'l Airspace Status
Arrival Demand Charts

Server Software By:

Please make a donation to help us keep growing!